G7GQA-4 Weather Reports


Display with metric or nautical units.
time (UTC)temp
F
wind
direction
speed
MPH
gust
MPH
rain 1hr
in
rain 24hr
in
rain mn
in
humidity
%
barometer
mb
20260502184523 54 318 0.0 1.0 0.00 0.30 0.30 93
20260502183523 54 0.0 0.0 0.02 0.30 0.30 93
20260502182523 54 318 0.0 1.0 0.03 0.30 0.30 93
20260502181523 54 318 0.0 2.0 0.05 0.30 0.30 93
20260502180523 54 0.0 0.0 0.06 0.30 0.30 93
20260502163523 58 306 0.0 2.0 0.13 0.13 0.13 88
20260502162523 59 306 0.0 2.0 0.06 0.06 0.06 85
20260502161523 60 0.0 0.0 0.03 0.03 0.03 82
20260502160523 62 0.0 0.0 0.02 0.02 0.02 74
20260502151523 64 321 2.0 6.0 0.00 0.00 0.00 61
20260502150523 65 320 2.0 4.0 0.00 0.00 0.00 60
20260502130523 66 31 1.0 3.0 0.00 0.00 0.00 54
20260502123523 65 306 2.0 4.0 0.00 0.00 0.00 55
20260502122523 65 122 2.0 4.0 0.00 0.00 0.00 56
20260502121523 66 295 1.0 4.0 0.00 0.00 0.00 54
20260502120523 66 319 1.0 3.0 0.00 0.00 0.00 54
20260502115523 64 315 1.0 3.0 0.00 0.00 0.00 59
20260502114523 64 314 2.0 4.0 0.00 0.00 0.00 59
20260502113523 64 268 1.0 3.0 0.00 0.00 0.00 57
20260502112524 64 346 1.0 4.0 0.00 0.00 0.00 58
20260502111523 63 293 1.0 3.0 0.00 0.00 0.00 57
20260502110523 64 264 1.0 3.0 0.00 0.00 0.00 58
20260502105523 62 132 0.0 2.0 0.00 0.00 0.00 60
20260502104523 63 258 0.0 2.0 0.00 0.00 0.00 58
20260502103523 63 337 1.0 2.0 0.00 0.00 0.00 60
20260502102523 62 321 1.0 3.0 0.00 0.00 0.00 62
20260502101523 63 256 1.0 3.0 0.00 0.00 0.00 60
20260502100523 63 252 0.0 2.0 0.00 0.00 0.00 59
20260502091523 59 354 1.0 2.0 0.00 0.00 0.00 67
20260502090523 59 343 0.0 2.0 0.00 0.00 0.00 67
20260502071523 54 0.0 0.0 0.00 0.00 0.00 83
20260502070523 55 0.0 0.0 0.00 0.00 0.00 82
20260502065523 52 0.0 0.0 0.00 0.00 0.00 87
20260502064523 49 0.0 0.0 0.00 0.00 0.00 94
20260502063523 49 0.0 0.0 0.00 0.00 0.00 94
20260502062523 48 0.0 0.0 0.00 0.00 0.00 94
20260502061523 47 0.0 0.0 0.00 0.00 0.00 94
20260502060523 46 0.0 0.0 0.00 0.00 0.00 95
20260502055523 45 0.0 0.0 0.00 0.00 0.00 95
20260502054523 44 0.0 0.0 0.00 0.00 0.00 95
20260502053523 43 0.0 0.0 0.00 0.00 0.00 95
20260502052524 43 0.0 0.0 0.00 0.00 0.00 94
20260502051523 42 0.0 0.0 0.00 0.00 0.00 94
20260502050523 42 0.0 0.0 0.00 0.00 0.00 94
20260502045523 42 0.0 0.0 0.00 0.00 0.00 94
20260502044523 42 0.0 0.0 0.00 0.00 0.00 94
20260502043523 42 0.0 0.0 0.00 0.00 0.00 94
20260502042523 42 0.0 0.0 0.00 0.00 0.00 94
20260502041523 42 0.0 0.0 0.00 0.00 0.00 94
20260502040523 42 0.0 0.0 0.00 0.00 0.00 94
20260502035523 42 0.0 0.0 0.00 0.00 0.00 94
20260502034523 42 0.0 0.0 0.00 0.00 0.00 94
20260502033523 42 0.0 0.0 0.00 0.00 0.00 94
20260502032524 43 0.0 0.0 0.00 0.00 0.00 94
20260502031523 43 0.0 0.0 0.00 0.00 0.00 94
20260502030523 43 0.0 0.0 0.00 0.00 0.00 94
20260502025523 43 0.0 0.0 0.00 0.00 0.00 94
20260502024523 44 0.0 0.0 0.00 0.00 0.00 94
20260502023523 44 0.0 0.0 0.00 0.00 0.00 93
20260502022523 44 0.0 0.0 0.00 0.00 0.00 93
20260502021523 44 0.0 0.0 0.00 0.00 0.00 93
20260502020523 44 0.0 0.0 0.00 0.00 0.00 93
20260502015523 45 0.0 0.0 0.00 0.00 0.00 93
20260502014524 45 0.0 0.0 0.00 0.00 0.00 93
20260502013523 45 0.0 0.0 0.00 0.00 0.00 93
20260502012524 46 0.0 0.0 0.00 0.00 0.00 93
20260502011523 46 0.0 0.0 0.00 0.00 0.00 93
20260502010523 46 0.0 0.0 0.00 0.00 0.00 92
20260502005523 46 0.0 0.0 0.00 0.00 0.00 92
20260502004523 46 0.0 0.0 0.00 0.00 0.00 92
20260502003524 46 0.0 0.0 0.00 0.00 0.00 92
20260502002523 47 0.0 0.0 0.00 0.00 0.00 91
20260502001524 47 0.0 0.0 0.00 0.00 0.00 91
20260502000524 47 0.0 0.0 0.00 0.00 0.00 91
20260501235524 48 276 0.0 1.0 0.00 0.00 0.00 91
20260501234524 48 0.0 0.0 0.00 0.00 0.00 91
20260501233524 47 0.0 0.0 0.00 0.00 0.00 91
20260501232524 47 0.0 0.0 0.00 0.00 0.00 91
20260501231524 48 0.0 0.0 0.00 0.00 0.00 91
20260501230524 48 0.0 0.0 0.00 0.00 0.00 90
20260501225524 49 0.0 0.0 0.00 0.00 0.00 90
20260501224524 49 0.0 0.0 0.00 0.00 0.00 90
20260501223524 49 0.0 0.0 0.00 0.00 0.00 90
20260501222524 49 0.0 0.0 0.00 0.00 0.00 90
20260501221524 50 0.0 0.0 0.00 0.00 0.00 90
20260501220524 50 0.0 0.0 0.00 0.00 0.00 90
20260501215524 50 0.0 0.0 0.00 0.00 0.00 90
20260501214524 50 0.0 0.0 0.00 0.00 0.00 90
20260501213524 51 0.0 0.0 0.00 0.00 0.00 90
20260501212524 52 0.0 0.0 0.00 0.00 0.00 90
20260501211524 52 0.0 0.0 0.00 0.00 0.00 90
20260501210524 53 0.0 0.0 0.00 0.00 0.00 89
20260501205524 53 0.0 0.0 0.00 0.00 0.00 89
20260501204524 54 0.0 0.0 0.00 0.00 0.00 88
20260501203524 55 0.0 0.0 0.00 0.00 0.00 87
20260501202524 55 0.0 0.0 0.00 0.00 0.00 87
20260501201524 56 0.0 0.0 0.00 0.00 0.00 85
20260501200524 57 0.0 0.0 0.00 0.00 0.00 84
20260501195524 57 276 0.0 2.0 0.00 0.00 0.00 83
20260501194524 58 296 1.0 2.0 0.00 0.00 0.00 84
20260501193524 58 293 0.0 2.0 0.00 0.00 0.00 84
20260501192524 58 0.0 0.0 0.00 0.00 0.00 83
20260501191524 58 0.0 0.0 0.00 0.00 0.00 82
20260501190524 59 293 0.0 1.0 0.00 0.00 0.00 81
20260501185524 59 293 0.0 2.0 0.00 0.00 0.00 81